EN

Hourly Weather Okunivka

Today, 18 May, Tuesday

Time Temperature Precipitation Wind Pressure Humidity
00:00 +14°C° 0 mm 5 mps 752 mmHg 94%
01:00 +13°C° 0 mm 5 mps 752 mmHg 94%
02:00 +13°C° 0 mm 5 mps 752 mmHg 94%
03:00 +14°C° 0 mm 6 mps 751 mmHg 93%
04:00 +14°C° 0 mm 6 mps 751 mmHg 93%
05:00 +14°C° 0 mm 7 mps 751 mmHg 92%
06:00 +15°C° 0.1 mm 7 mps 751 mmHg 88%
07:00 +16°C° 0.1 mm 7 mps 751 mmHg 84%
08:00 +17°C° 0.1 mm 7 mps 752 mmHg 79%
09:00 +17°C° 1.2 mm 7 mps 752 mmHg 83%
10:00 +16°C° 1.2 mm 7 mps 752 mmHg 87%
11:00 +15°C° 1.2 mm 6 mps 752 mmHg 91%
12:00 +16°C° 0 mm 7 mps 752 mmHg 86%
13:00 +17°C° 0 mm 7 mps 752 mmHg 81%
14:00 +18°C° 0 mm 7 mps 752 mmHg 75%
15:00 +18°C° 0 mm 8 mps 752 mmHg 74%
16:00 +17°C° 0 mm 8 mps 751 mmHg 74%
17:00 +17°C° 0 mm 9 mps 751 mmHg 73%
18:00 +16°C° 0.2 mm 8 mps 752 mmHg 78%
19:00 +15°C° 0.2 mm 8 mps 752 mmHg 82%
20:00 +13°C° 0.2 mm 8 mps 752 mmHg 87%
21:00 +14°C° 0.2 mm 7 mps 752 mmHg 87%
22:00 +14°C° 0.2 mm 7 mps 751 mmHg 87%
23:00 +14°C° 0.2 mm 7 mps 751 mmHg 87%

Tomorrow, 19 May, Wednesday

Time Temperature Precipitation Wind Pressure Humidity
00:00 +12°C° 0.1 mm 7 mps 751 mmHg 87%
01:00 +12°C° 0.1 mm 7 mps 752 mmHg 87%
02:00 +11°C° 0.1 mm 7 mps 752 mmHg 87%
03:00 +11°C° 0 mm 7 mps 752 mmHg 87%
04:00 +11°C° 0 mm 8 mps 752 mmHg 86%
05:00 +11°C° 0 mm 8 mps 752 mmHg 86%
06:00 +12°C° 0.2 mm 8 mps 753 mmHg 83%
07:00 +13°C° 0.2 mm 8 mps 753 mmHg 80%
08:00 +15°C° 0.2 mm 9 mps 754 mmHg 77%
09:00 +15°C° 0.1 mm 9 mps 754 mmHg 75%
10:00 +16°C° 0.1 mm 9 mps 754 mmHg 72%
11:00 +16°C° 0.1 mm 10 mps 755 mmHg 69%
12:00 +16°C° 0 mm 9 mps 755 mmHg 70%
13:00 +16°C° 0 mm 9 mps 755 mmHg 70%
14:00 +16°C° 0 mm 8 mps 755 mmHg 71%
15:00 +16°C° 0 mm 8 mps 756 mmHg 70%
16:00 +16°C° 0 mm 8 mps 756 mmHg 70%
17:00 +16°C° 0 mm 8 mps 756 mmHg 69%
18:00 +15°C° 0 mm 7 mps 756 mmHg 73%
19:00 +15°C° 0 mm 7 mps 756 mmHg 78%
20:00 +14°C° 0 mm 6 mps 756 mmHg 82%
21:00 +13°C° 0 mm 6 mps 756 mmHg 84%
22:00 +13°C° 0 mm 5 mps 756 mmHg 86%
23:00 +13°C° 0 mm 5 mps 756 mmHg 88%

Day after tomorrow, 20 May, Thursday

Time Temperature Precipitation Wind Pressure Humidity
00:00 +13°C° 0 mm 5 mps 756 mmHg 88%
01:00 +13°C° 0 mm 4 mps 756 mmHg 88%
02:00 +12°C° 0 mm 4 mps 756 mmHg 88%
03:00 +13°C° 0 mm 4 mps 756 mmHg 87%
04:00 +13°C° 0 mm 5 mps 756 mmHg 86%
05:00 +13°C° 0 mm 5 mps 755 mmHg 85%
06:00 +15°C° 0 mm 5 mps 755 mmHg 76%
07:00 +16°C° 0 mm 5 mps 756 mmHg 67%
08:00 +19°C° 0 mm 5 mps 756 mmHg 59%
09:00 +20°C° 0 mm 4 mps 755 mmHg 54%
10:00 +21°C° 0 mm 3 mps 755 mmHg 50%
11:00 +23°C° 0 mm 2 mps 755 mmHg 46%
12:00 +23°C° 0 mm 2 mps 755 mmHg 44%
13:00 +24°C° 0 mm 2 mps 755 mmHg 43%
14:00 +24°C° 0 mm 2 mps 755 mmHg 41%
15:00 +22°C° 0 mm 3 mps 754 mmHg 48%
16:00 +21°C° 0 mm 3 mps 754 mmHg 54%
17:00 +19°C° 0 mm 3 mps 754 mmHg 61%
18:00 +18°C° 0 mm 4 mps 754 mmHg 63%
19:00 +17°C° 0 mm 4 mps 754 mmHg 66%
20:00 +15°C° 0 mm 5 mps 755 mmHg 68%
21:00 +15°C° 0 mm 4 mps 755 mmHg 73%
22:00 +14°C° 0 mm 3 mps 755 mmHg 77%
23:00 +14°C° 0 mm 2 mps 755 mmHg 82%

21 May, Friday

Time Temperature Precipitation Wind Pressure Humidity
00:00 +14°C° 0 mm 2 mps 755 mmHg 82%
01:00 +14°C° 0 mm 2 mps 755 mmHg 83%
02:00 +13°C° 0 mm 3 mps 755 mmHg 83%
03:00 +14°C° 0 mm 3 mps 755 mmHg 83%
04:00 +14°C° 0 mm 3 mps 755 mmHg 83%
05:00 +14°C° 0 mm 3 mps 755 mmHg 83%
06:00 +16°C° 0 mm 3 mps 755 mmHg 76%
07:00 +18°C° 0 mm 3 mps 755 mmHg 69%
08:00 +19°C° 0 mm 3 mps 755 mmHg 63%
09:00 +20°C° 0 mm 3 mps 755 mmHg 59%
10:00 +21°C° 0 mm 4 mps 755 mmHg 56%
11:00 +22°C° 0 mm 4 mps 756 mmHg 53%
12:00 +22°C° 0 mm 4 mps 755 mmHg 53%
13:00 +22°C° 0 mm 4 mps 755 mmHg 52%
14:00 +22°C° 0 mm 5 mps 755 mmHg 52%
15:00 +22°C° 0 mm 5 mps 755 mmHg 55%
16:00 +21°C° 0 mm 5 mps 755 mmHg 59%
17:00 +21°C° 0 mm 5 mps 755 mmHg 62%
18:00 +19°C° 0 mm 5 mps 755 mmHg 67%
19:00 +17°C° 0 mm 5 mps 755 mmHg 72%
20:00 +16°C° 0 mm 5 mps 755 mmHg 77%
21:00 +16°C° 0 mm 5 mps 755 mmHg 78%
22:00 +16°C° 0 mm 5 mps 755 mmHg 79%
23:00 +16°C° 0 mm 5 mps 754 mmHg 79%

22 May, Saturday

Time Temperature Precipitation Wind Pressure Humidity
00:00 +16°C° 0 mm 6 mps 754 mmHg 80%
01:00 +16°C° 0 mm 6 mps 754 mmHg 82%
02:00 +16°C° 0 mm 6 mps 753 mmHg 83%
03:00 +16°C° 0 mm 7 mps 753 mmHg 84%
04:00 +16°C° 0 mm 8 mps 753 mmHg 84%
05:00 +16°C° 0 mm 8 mps 753 mmHg 85%
06:00 +18°C° 0 mm 8 mps 753 mmHg 79%
07:00 +20°C° 0 mm 8 mps 753 mmHg 74%
08:00 +22°C° 0 mm 8 mps 753 mmHg 69%
09:00 +23°C° 0 mm 8 mps 753 mmHg 66%
10:00 +24°C° 0 mm 8 mps 753 mmHg 62%
11:00 +27°C° 0 mm 8 mps 753 mmHg 58%
12:00 +27°C° 0 mm 8 mps 752 mmHg 56%
13:00 +28°C° 0 mm 8 mps 752 mmHg 53%
14:00 +29°C° 0 mm 7 mps 752 mmHg 50%
15:00 +28°C° 0 mm 8 mps 752 mmHg 53%
16:00 +28°C° 0 mm 8 mps 751 mmHg 56%
17:00 +27°C° 0 mm 8 mps 751 mmHg 58%
18:00 +26°C° 0 mm 7 mps 752 mmHg 66%
19:00 +23°C° 0 mm 6 mps 752 mmHg 73%
20:00 +21°C° 0 mm 5 mps 752 mmHg 80%
21:00 +21°C° 0 mm 6 mps 753 mmHg 80%
22:00 +20°C° 0 mm 6 mps 753 mmHg 81%
23:00 +20°C° 0 mm 7 mps 753 mmHg 81%

23 May, Sunday

Time Temperature Precipitation Wind Pressure Humidity
00:00 +20°C° 0 mm 7 mps 753 mmHg 83%
01:00 +18°C° 0 mm 8 mps 752 mmHg 85%
02:00 +18°C° 0 mm 8 mps 752 mmHg 87%
03:00 +18°C° 0 mm 8 mps 752 mmHg 88%
04:00 +18°C° 0 mm 8 mps 751 mmHg 89%
05:00 +17°C° 0 mm 7 mps 751 mmHg 91%
06:00 +20°C° 0 mm 6 mps 752 mmHg 85%
07:00 +21°C° 0 mm 6 mps 752 mmHg 79%
08:00 +23°C° 0 mm 5 mps 752 mmHg 74%
09:00 +25°C° 0.2 mm 5 mps 752 mmHg 70%
10:00 +26°C° 0.2 mm 5 mps 752 mmHg 67%
11:00 +27°C° 0.2 mm 4 mps 752 mmHg 63%
12:00 +27°C° 0.1 mm 4 mps 752 mmHg 63%
13:00 +27°C° 0.1 mm 4 mps 751 mmHg 63%
14:00 +27°C° 0.1 mm 4 mps 751 mmHg 63%
15:00 +27°C° 0.5 mm 4 mps 751 mmHg 64%
16:00 +27°C° 0.5 mm 3 mps 751 mmHg 65%
17:00 +26°C° 0.5 mm 3 mps 751 mmHg 65%
18:00 +25°C° 0 mm 4 mps 751 mmHg 69%
19:00 +23°C° 0 mm 4 mps 751 mmHg 73%
20:00 +22°C° 0 mm 5 mps 751 mmHg 77%
21:00 +21°C° 0.6 mm 4 mps 751 mmHg 82%
22:00 +21°C° 0.6 mm 3 mps 751 mmHg 87%
23:00 +20°C° 0.6 mm 2 mps 751 mmHg 92%
Show more

We Need Your Consent

Meteoprog and our Service Providers may store and access personal data such as cookies, device identifiers or other similar technologies on your device and process such data to personalise content and ads, as well as provide social media features and to analyse the traffic.

  • Store and/or access information on your device

    Cookies, device identifiers or other information can be stored or accessed on your device for the purposes indicated above.

  • Personalised ads and content, ad and content measurement, audience insights, and products development

    Ads and content can be personalised based on a profile. More data can be added to better personalise ads and content. Ad and content performance can be measured. Insights about the audience who saw the ads and content can be derived. Such data can be used to develop or improve user’s experience, systems and software.

By clicking ‘I Agree’ you will allow the use of indicated cookies, device identifiers, web beacons or other similar technologies. Your settings can be changed in the browser on your device.

For certain purposes, legitimate interests may be relied on, rather than consent. You can read more about this in our Privacy and Cookie Policy.